Close

Questo sito utlizza cookie. Può leggere come li usiamo nella nostra Privacy Policy.

Ronchi Tower
Ronchi Tower

From Facebook

METAR & TAF

2021/04/21 03:50 LIPQ 210350Z AUTO 11006KT 9999 NCD 06/04 Q1016
2021/04/20 18:21 TAF LIPQ 201700Z 2018/2118 18006KT 9999 SCT040
2021/04/21 03:50 LIPZ 210350Z 05007KT CAVOK 09/07 Q1016 NOSIG
2021/04/20 18:21 TAF LIPZ 201700Z 2018/2124 03007KT 9999 SCT030 BECMG 2110/2112 17010KT BECMG 2118/2121 04007KT
2021/04/21 03:50 LIPH 210350Z AUTO 02005KT 9999 NCD 09/07 Q1016
2021/04/20 18:23 TAF LIPH 201700Z 2018/2118 VRB05KT 9999 SCT030
2021/04/21 03:50 LIRF 210350Z 09003KT CAVOK 05/05 Q1018 NOSIG
2021/04/20 18:22 TAF LIRF 201700Z 2018/2124 28010KT 9999 SCT030 BECMG 2019/2021 VRB05KT TEMPO 2101/2105 4000 BR BECMG 2109/2111 16014KT
2021/04/21 03:50 LIML 210350Z VRB02KT CAVOK 10/06 Q1016 NOSIG
2021/04/20 18:21 TAF LIML 201700Z 2018/2118 VRB05KT 9999 FEW050
2021/04/21 03:50 EDDM 210350Z VRB02KT 3000 0500SW R26R/1500V1500D R26L/1300D BCFG BR FEW001 M01/M02 Q1015 NOSIG
2021/04/20 21:07 TAF AMD EDDM 202155Z 2021/2124 VRB03KT CAVOK TEMPO 2022/2107 1500 BCFG PROB40 TEMPO 2100/2107 0500 FG VV001 PROB30 TEMPO 2107/2108 BKN005 TEMPO 2111/2117 33005KT SCT035CB
2021/04/21 03:50 EGSS 210350Z AUTO 01003KT 1200 R04/P1500 BR NCD 05/05 Q1019
2021/04/20 18:57 TAF AMD TAF AMD EGSS 201754Z 2018/2124 10004KT 9999 FEW045 TEMPO 2018/2023 7000 PROB30 TEMPO 2020/2023 4000 BR BECMG 2023/2102 3000 BR PROB30 2023/2106 0300 FG BKN001 BECMG 2105/2107 8000 NSW PROB30 TEMPO 2105/2109 BKN007 BECMG 2107/2110 04010KT 9999
2021/04/21 03:50 EDDF 210350Z VRB01KT CAVOK 03/02 Q1015 NOSIG
2021/04/20 18:28 TAF EDDF 201700Z 2018/2124 VRB03KT 9999 FEW040 PROB30 TEMPO 2103/2106 3000 BCFG BECMG 2110/2112 35006KT PROB40 TEMPO 2112/2117 -TSRA BKN030CB

FlightRadar24

Radar Meteo

Traffic data

Agosto 2018

Passeggeri: 63892-12,9% (rank: 23)
Nazionali 34490 -19,8%
Internazionali 29193 -3,0%

Movimenti: 1307+11,7% (rank: 24)
Tot commerciale 556 -7,2%
Aviazione generale 751 +31,5%

Cargo (tons): 20,6+62,5% (rank: 21)

Gennaio - Agosto 2018

Passeggeri: 507438-3,5% (rank: 23)
Nazionali 322655 -4,9%
Internazionali 182927 -0,7%

Movimenti: 10366-4,25 (rank: 22)
Tot commerciale 5328 -11,0%
Aviazione generale 5038 +4,2%

Cargo (tons): 299,2+61,9% (rank: 20)

Photo

Douglas DC-6B
Douglas DC-6B
Distinct views: 15
Douglas DC-6B
Douglas DC-6B
Distinct views: 62
Douglas DC-6B
Douglas DC-6B
Distinct views: 185
Gulfstream Aerospace G650
Gulfstream Aerospace G650
Total views: 5725